ESSAIM-1

导读

ESSAIM-1是法国“蜂群”(Essaim)电子侦察卫星星座的成员,由法国武器装备部主导,阿斯特里姆公司、泰雷兹公司联合研制,于2004年12月18日搭乘阿里安-5火箭发射升空。卫星重120千克,运行在680千米近地轨道,和另外三颗卫星组成编队飞行,通过时差定位技术对地面电磁信号进行侦察定位,验证小卫星集群电子侦察技术,为法国信号情报收集提供支撑。

Basic Information
目录编号:
28494
目录名称:
ESSAIM-1
国际标识:
2004-049C
轨道中心:
EARTH
卫星名称:
ESSAIM-1
卫星全名:
ESSAIM-1
卫星状态:
在轨 (已飞行7878 天)
发射日期:
2004-12-18 UTC
国别 :
法国 (FR)
星等 :
--
Orbit Information
数据来源 国际轨道数据 AOE轨道数据
星历时间 2026-07-14T11:47:26+0800
5小时前
查看轨道信息
2026-07-09T00:00:00+0800
5天前
查看轨道信息
半长轴 6987.471km 6987.424km
偏心率 0.0001181 0.0001336
轨道倾角 98.300° 98.301°
近地点辐角 73.757° 65.326°
升交点赤经 65.413° 59.683°
平近点角 286.378° 89.522°
近地点 608.508km 608.353km
远地点 610.16km 610.221km
周期 96.881分钟 96.880分钟
每日圈数 14.863559 14.863708
Detailed Information
使用方式:
暂无
2D Orbit Map
3D Orbit Map
Orbit Altitude Analysis Chart
Orbit Inclination Analysis Chart
Orbit Comprehensive Analysis Chart
View Comprehensive Chart